TimePDT,TemperatureF,Dew PointF,Humidity,Sea Level PressureIn,VisibilityMPH,Wind Direction,Wind SpeedMPH,Gust SpeedMPH,PrecipitationIn,Events,Conditions,WindDirDegrees,DateUTC
12:56 AM,54.9,50.9,86,29.94,10.0,North,-9999.0,-,N/A,,Clear,0,2012-10-15 07:56:00
1:56 AM,56.8,50.0,78,29.94,10.0,North,-9999.0,-,N/A,,Clear,0,2012-10-15 08:56:00
2:56 AM,54.9,50.9,86,29.93,10.0,North,-9999.0,-,N/A,,Clear,0,2012-10-15 09:56:00
3:56 AM,56.8,48.9,75,29.91,10.0,North,-9999.0,-,N/A,,Clear,0,2012-10-15 10:56:00
5:56 AM,48.9,48.9,100,29.92,10.0,North,-9999.0,-,N/A,,Clear,0,2012-10-15 12:56:00
6:56 AM,48.9,48.9,100,29.93,10.0,North,-9999.0,-,N/A,,Clear,0,2012-10-15 13:56:00
7:56 AM,56.8,52.0,84,29.94,10.0,North,-9999.0,-,N/A,,Clear,0,2012-10-15 14:56:00
8:56 AM,65.8,50.9,58,29.96,10.0,North,-9999.0,-,0.02,,Clear,0,2012-10-15 15:56:00
9:56 AM,72.9,50.0,44,29.95,10.0,North,-9999.0,-,N/A,,Clear,0,2012-10-15 16:56:00
11:56 AM,91.9,39.9,16,29.90,10.0,North,-9999.0,-,0.01,,Clear,0,2012-10-15 18:56:00
12:56 PM,93.9,36.9,14,29.88,10.0,North,-9999.0,-,N/A,,Clear,0,2012-10-15 19:56:00
1:56 PM,93.9,37.9,14,29.84,10.0,North,-9999.0,-,N/A,,Clear,0,2012-10-15 20:56:00
2:56 PM,92.8,46.9,21,29.83,10.0,North,-9999.0,-,N/A,,Clear,0,2012-10-15 21:56:00
4:56 PM,86.9,46.9,25,29.82,10.0,North,-9999.0,-,N/A,,Clear,0,2012-10-15 23:56:00
5:56 PM,82.9,45.9,27,29.83,10.0,North,-9999.0,-,N/A,,Clear,0,2012-10-16 00:56:00
6:56 PM,79.0,46.9,32,29.84,10.0,North,-9999.0,-,N/A,,Clear,0,2012-10-16 01:56:00
7:56 PM,77.0,48.9,37,29.85,10.0,North,-9999.0,-,N/A,,Clear,0,2012-10-16 02:56:00
8:56 PM,68.9,50.0,51,29.87,10.0,North,-9999.0,-,N/A,,Clear,0,2012-10-16 03:56:00
9:56 PM,61.9,50.9,67,29.89,10.0,North,-9999.0,-,N/A,,Clear,0,2012-10-16 04:56:00
10:56 PM,59.0,50.9,74,29.89,10.0,North,-9999.0,-,N/A,,Clear,0,2012-10-16 05:56:00
11:56 PM,56.8,50.9,80,29.88,10.0,North,-9999.0,-,N/A,,Clear,0,2012-10-16 06:56:00